sat.trackr.live / text

‹ back to catalog

STARLINK-32800

NORAD 62743 · 2025-014J

PAYLOAD ACTIVE UNKNOWN

§ Identity

Operator
Country
US
Launch date
2025-01-21
Launch site
AFETR
Launch vehicle
Mass (kg)
RCS (m²)

Purposes: comms

External: N2YO · Heavens-Above · Gunter

§ Orbital elements

Epoch: 2026-05-25T04:46:58.916064Z

Period
94.27 min
Inclination
42.9975°
Eccentricity
0.0001202
Mean motion
15.27595485 rev/d
Perigee alt
482.2 km
Apogee alt
483.8 km
Semi-major
6,861.1 km
B*
8.4730e-4
RAAN
89.6470°
Arg perigee
260.7719°
Mean anomaly
99.2997°
Rev number
7,487

§ Raw data

STARLINK-328001 62743U 25014J   26145.19929301  .00023138  00000+0  84730-3 0  99972 62743  42.9975  89.6470 0001202 260.7719  99.2997 15.27595485 74873

JSON: /api/v1/satellites/62743 · /tle

For live sub-satellite position, see the globe view (requires WebGL).

§ Visibility from observer

Set your observer location to see the next 7 days of passes ≥ 10°. The values pass through the URL so the page stays shareable.

No JS? Fill the form by hand. The geolocation button needs JavaScript.